Regional Weather Roundup
Issued by NWS Little Rock, AR

Home | Current Version | Previous Version | Graphics & Text | Print | Product List | Glossary On
Versions: 1 2 3 4 5 6 7 8 9 10 11 12 13 14 15 16 17 18 19 20 21 22 23 24 25 26 27 28 29 30 31 32 33 34 35 36 37 38 39 40 41 42 43 44 45 46 47 48 49
000
ASUS44 KLZK 032005
RWRLZK

WEATHER ROUNDUP FOR ARKANSAS
NATIONAL WEATHER SERVICE LITTLE ROCK AR
300 PM CDT FRI JUL 03 2015

NOTE: "FAIR" INDICATES FEW OR NO CLOUDS BELOW 12,000 FEET WITH NO
SIGNIFICANT WEATHER AND/OR OBSTRUCTIONS TO VISIBILITY.

ARZ001-003-010-029-032100-
NORTHWEST ARKANSAS

CITY           SKY/WX    TMP DP  RH WIND       PRES   REMARKS
FAYETTEVILLE   PTSUNNY   82  72  71 W12       29.90F HX  87
FORT SMITH     MOSUNNY   86  70  58 W13       29.88F HX  90
HARRISON       LGT RAIN  78  70  76 N5        29.91F
BENTONVILLE    MOSUNNY   84  68  58 W7        29.91F HX  87
ROGERS         PTSUNNY   84  70  62 W10       29.91F HX  88
SILOAM SPGS    MOSUNNY   84  70  61 W9        29.91F HX  88
HIGHFILL       MOSUNNY   84  72  67 W8        29.90F HX  89
SPRINGDALE     PTSUNNY   82  72  69 SW7       29.92F HX  87
$$

ARZ004-005-016-032100-
NORTH CENTRAL ARKANSAS

CITY           SKY/WX    TMP DP  RH WIND       PRES   REMARKS
BATESVILLE     PTSUNNY   79  72  78 S9        29.88F
FLIPPIN          N/A     79  72  78 S6        29.87R THUNDER
MTN HOME       MOSUNNY   82  69  64 VRB5      29.87F THUNDER HX  85
$$

ARZ040-041-032100-
WEST CENTRAL ARKANSAS

CITY           SKY/WX    TMP DP  RH WIND       PRES   REMARKS
MENA           MOSUNNY   82  73  74 SW10G16   29.93F HX  88
MOUNT IDA      CLOUDY    76  73  91 VRB5      29.92F
$$

ARZ009-017-025-026-028-032100-
NORTHEAST ARKANSAS

CITY           SKY/WX    TMP DP  RH WIND       PRES   REMARKS
JONESBORO      CLOUDY    75  72  90 SW10      29.90F
NEWPORT        LGT RAIN  77  73  87 S14       29.91F
WALNUT RIDGE   MOSUNNY   73  72  94 S12       29.90F
BLYTHEVILLE    CLOUDY    76  73  91 SW6G18    29.91F
$$

ARZ022-023-033-042-044-032100-
CENTRAL ARKANSAS

CITY           SKY/WX    TMP DP  RH WIND       PRES   REMARKS
LITTLE ROCK    TSTM      78  71  79 SW10      29.92F
N LITTLE ROCK  CLOUDY    73  73  99 NW3       29.92F
JACKSONVILLE   LGT RAIN  74  72  92 SW3       29.91F FOG
SEARCY         PTSUNNY   79  72  79 S6        29.92F
HOT SPRINGS    CLOUDY    77  72  84 W9        29.95R
RUSSELLVILLE   PTSUNNY   78  72  81 S6        29.89F
$$

ARZ036-032100-
EAST ARKANSAS

CITY           SKY/WX    TMP DP  RH WIND       PRES   REMARKS
WEST MEMPHIS   CLOUDY    74  73  97 SW12      29.92F
$$

ARZ050-053-066-070-073-032100-
SOUTHWEST ARKANSAS

CITY           SKY/WX    TMP DP  RH WIND       PRES   REMARKS
ARKADELPHIA    FAIR      76  76 100 SW5       29.94F
CAMDEN         CLOUDY    75  70  83 MISG      29.97R
TEXARKANA      CLOUDY    78  77  96 VRB5      29.95F FOG
EL DORADO      CLOUDY    82  74  76 VRB5      29.96S HX  88
DE QUEEN       PTSUNNY   81  74  79 SW13      29.92F HX  86
$$

ARZ056-057-069-032100-
SOUTHEAST ARKANSAS

CITY           SKY/WX    TMP DP  RH WIND       PRES   REMARKS
PINE BLUFF     LGT RAIN  76  75  97 S6        29.94F
STUTTGART      CLOUDY    79  72  78 SW12      29.92F
MONTICELLO     TSTM      82  77  84 S9        29.95F HX  90

$$





USA.gov is the U.S. government's official web portal to all federal, state and local government web resources and services.